Home > Time Zones > World Clock > Weather > China > Hefei > Past weeks

Flag for China Weather past 2 weeks in Hefei, Anhui, China

Now
77 °F

Fog.


Feels Like: 79 °F
Forecast: 75 / 90 °F
Wind: 6 mph from Southeast

Location: Hefei Airport

Current Time: Aug 21, 2014 at 11:11:42 PM

Latest Report: Aug 21, 2014 at 10:00 PM


Visibility: 3 mi

Pressure: 29.83 "Hg

Humidity: 79%

Dew point: 70 °F

Location of HefeiLocation

Historic Weather in Hefei — Graph

°F

Hefei temperature yesterday

Maximum temperature yesterday: 86 °F (at 4:00 PM)
Minimum temperature yesterday: 70 °F (at 5:00 AM)
Average temperature yesterday: 77 °F

Past Weeks' High & Low Weather Summary

 TemperatureHumidityPressure
High88 °F (Aug 21, 4:00 PM)100% (Aug 7, 5:00 AM)29.92 "Hg (Aug 7, 5:00 AM)
Low68 °F (Aug 13, 3:00 AM)52% (Aug 21, 4:00 PM)29.62 "Hg (Aug 7, 2:00 AM)
Average75 °F87%29.76 "Hg
* Reported Aug 6 9:00 PM — Aug 21 9:00 PM, Hefei, Weather by CustomWeather, © 2014

Note: Actual official high and low records may vary slightly from our data, if they occured in-between our weather recording intervals... More about our weather records

Advertising

Hefei weather history for previous 24 hours

 ConditionsComfort  
Time TempWeatherWind HumidityBarometerVisibility
9:00 PM
Aug 21
77 °FFog.1 mph83%29.83 "Hg2 mi
8:00 PM77 °FFog.3 mph83%29.80 "Hg3 mi
7:00 PM79 °FClear.3 mph74%29.80 "Hg4 mi
6:00 PM82 °FSunny.8 mph62%29.80 "Hg10 mi
5:00 PM86 °FSunny.10 mph59%29.77 "Hg10 mi
4:00 PM88 °FPassing clouds.6 mph52%29.77 "HgN/A
3:00 PM86 °FPassing clouds.6 mph59%29.80 "HgN/A
2:00 PM86 °FPassing clouds.6 mph55%29.80 "HgN/A
1:00 PM86 °FPassing clouds.6 mph59%29.83 "HgN/A
12:00 PM84 °FPassing clouds.3 mph62%29.83 "HgN/A
11:00 AM84 °FPassing clouds.6 mph62%29.86 "HgN/A
10:00 AM82 °FClear.6 mph66%29.86 "Hg5 mi
9:00 AM79 °FFog.8 mph79%29.83 "Hg2 mi
8:00 AM75 °FFog.3 mph89%29.83 "Hg2 mi
7:00 AM73 °FFog.3 mph94%29.83 "Hg1 mi
6:00 AM70 °FFog.1 mph100%29.83 "Hg1 mi
5:00 AM70 °FFog.3 mph94%29.80 "Hg2 mi
4:00 AM72 °FFog.1 mph94%29.80 "Hg2 mi
3:00 AM72 °FFog.3 mph94%29.80 "Hg2 mi
2:00 AM72 °FFog.3 mph88%29.80 "Hg2 mi
1:00 AM72 °FFog.3 mph88%29.83 "Hg2 mi
12:00 AM73 °FFog.3 mph89%29.83 "Hg3 mi
11:00 PM
Aug 20
75 °FFog.3 mph83%29.83 "Hg3 mi
Weather by CustomWeather, © 2014

See weather overviewHow to use our weather pages